This is the latest recevied weather packets stored in our database for station/object KF7SOJ. If no packets are shown the sender has not sent any weather packets the latest 10 day(s).
| Time | Temp. | Humidity | Pressure | Rain* | Wind** | Luminosity | Snow |
|---|---|---|---|---|---|---|---|
| 1777681035 | 22.78° C | 16% | 932.6 hPa | 0 mm | - | 260 W/m² | - |
| 1777680734 | 23.33° C | 18% | 932.6 hPa | 0 mm | - | 283 W/m² | - |
| 1777680431 | 23.89° C | 17% | 932.6 hPa | 0 mm | - | 305 W/m² | - |
| 1777680129 | 24.44° C | 18% | 932.7 hPa | 0 mm | - | 323 W/m² | - |
| 1777679824 | 23.33° C | 18% | 932.9 hPa | 0 mm | - | 342 W/m² | - |
| 1777679520 | 22.78° C | 16% | 932.6 hPa | 0 mm | - | 360 W/m² | - |
| 1777679216 | 22.78° C | 18% | 932.8 hPa | 0 mm | - | 379 W/m² | - |
| 1777678913 | 22.78° C | 17% | 932.7 hPa | 0 mm | - | 397 W/m² | - |
| 1777678611 | 22.78° C | 17% | 932.8 hPa | 0 mm | - | 416 W/m² | - |
| 1777678308 | 22.78° C | 16% | 932.9 hPa | 0 mm | - | 433 W/m² | - |
| 1777678004 | 23.33° C | 17% | 932.9 hPa | 0 mm | - | 452 W/m² | - |
| 1777677702 | 23.89° C | 17% | 932.8 hPa | 0 mm | - | 469 W/m² | - |
| 1777677399 | 23.33° C | 18% | 932.9 hPa | 0 mm | - | 487 W/m² | - |
| 1777677097 | 22.78° C | 18% | 932.9 hPa | 0 mm | - | 505 W/m² | - |
| 1777676795 | 22.78° C | 18% | 933 hPa | 0 mm | - | 522 W/m² | - |
| 1777676493 | 23.33° C | 17% | 932.8 hPa | 0 mm | - | 538 W/m² | - |
| 1777676191 | 23.33° C | 17% | 932.9 hPa | 0 mm | - | 554 W/m² | - |
| 1777675887 | 23.33° C | 16% | 932.9 hPa | 0 mm | - | 569 W/m² | - |
| 1777675584 | 23.33° C | 15% | 932.8 hPa | 0 mm | - | 587 W/m² | - |
| 1777675281 | 23.33° C | 16% | 933 hPa | 0 mm | - | 603 W/m² | - |
| 1777674977 | 23.89° C | 17% | 932.9 hPa | 0 mm | - | 618 W/m² | - |
| 1777674675 | 22.78° C | 15% | 933.1 hPa | 0 mm | - | 629 W/m² | - |
| 1777674386 | 23.33° C | 16% | 933 hPa | 0 mm | - | 651 W/m² | - |
| 1777674068 | 22.78° C | 17% | 933.1 hPa | 0 mm | - | 662 W/m² | - |
| 1777673764 | 23.33° C | 16% | 933.2 hPa | 0 mm | - | 681 W/m² | - |
* Rain latest hour (hover to see other rain measurements)
** Current wind speed in m/s (hover to see current wind gust speed)